Location: Krasnoyarskiy Pitomnik
(51.1333°N, 71.6167°E)
Time: 18:42:58
(UTC+00:00)

Vanguard 2 - Pass Details

Date: 25 April 2024
Orbit: 553 x 2914 km, 32.9° (Epoch: 22 May)

Event Time Altitude Azimuth Distance (km) Brightness Sun altitude
Exits shadow 20:30:08 31° 196° (SSW) 3,733 10.4 -23.1°
Maximum altitude 20:34:51 37° 166° (SSE) 3,688 10.5 -22.8°
Drops below altitude 10° 20:49:49 10° 109° (ESE) 5,737 12.0 -21.8°
Sets 20:54:44 0° 102° (ESE) 6,698 12.5 -21.5°
